GFSSE_prec_cthk_000.txt.gz
RH
73 64 58 56 56 53 48 46 42 44 45 43 37 35 34 33 33 33 32 31 31 32 31 31 30 28 25 20 18 20 22 23 25 31 35 41 42 51 62 65 66 61 65
69 62 54 54 50 45 42 40 41 44 40 35 34 33 31 30 27 23 21 20 20 18 17 17 17 16 15 15 14 14 14 15 21 29 40 48 49 49 47 51 50 55 61
63 56 52 49 44 41 39 40 41 39 36 33 32 27 23 22 17 14 15 15 14 14 13 13 11 10 9 10 13 15 17 20 22 26 32 37 43 47 45 46 43 47 53
57 55 50 45 43 41 39 38 37 35 30 27 24 21 20 17 12 11 10 10 12 15 15 11 9 7 7 8 10 12 16 22 25 25 28 33 41 47 47 46 50 50 48
62 55 46 43 42 40 36 32 28 27 25 23 20 19 16 11 10 10 10 12 16 17 16 13 11 10 10 10 9 9 11 13 21 27 28 31 40 44 47 53 60 60 55
52 46 40 39 39 30 24 24 24 22 20 19 18 14 10 10 11 11 14 17 18 18 18 17 17 15 15 15 15 13 13 12 13 17 24 28 34 45 40 52 58 72 72
36 33 29 25 19 20 21 21 19 18 17 15 11 9 10 13 15 13 15 17 19 20 23 22 24 24 25 24 23 21 20 17 17 17 17 19 26 30 29 37 52 70 81
21 18 17 17 17 16 16 15 15 14 12 10 9 11 15 16 16 17 20 23 25 26 28 29 29 30 29 29 29 30 30 28 26 26 26 23 20 20 22 30 43 58 69
16 15 15 15 15 12 11 11 10 9 9 10 14 17 18 24 26 27 29 29 31 31 30 31 31 30 29 29 30 29 30 33 35 38 37 35 33 32 30 28 30 42 53
15 16 15 14 10 8 8 8 9 12 16 18 21 27 30 30 30 30 30 31 33 35 34 33 33 32 32 31 30 29 30 32 35 37 38 41 42 43 41 33 31 32 29
18 18 16 13 15 13 12 15 20 23 25 28 31 34 34 35 35 36 36 36 35 36 37 37 38 38 36 34 32 30 29 31 33 34 36 37 40 44 43 40 33 34 37
23 21 20 17 17 20 26 28 30 33 34 34 36 35 37 38 39 39 39 39 39 40 40 40 40 40 41 40 38 37 33 30 29 29 30 33 38 41 40 38 34 32 35
29 29 30 24 22 27 30 34 38 39 39 40 39 36 39 40 41 43 43 41 40 41 42 42 42 42 41 40 39 38 38 39 36 32 28 29 29 31 35 35 33 31 33
35 37 39 32 27 29 34 39 46 48 47 49 47 43 39 41 42 44 45 47 48 49 48 47 45 43 43 39 38 37 36 35 36 35 33 33 30 27 27 28 31 33 34
35 39 44 38 37 37 41 54 56 53 52 57 54 51 43 42 46 52 55 55 55 55 53 51 51 49 46 43 41 38 38 39 38 39 35 35 34 32 28 26 26 28 29
36 39 48 43 52 54 51 62 61 59 63 58 56 53 52 51 53 59 61 59 58 58 56 54 53 53 51 49 45 40 41 43 48 48 45 40 35 32 31 28 25 24 25
39 40 43 49 52 55 56 57 61 65 67 63 64 62 58 56 61 67 64 61 58 54 55 53 51 51 52 51 49 46 48 45 50 43 39 35 38 33 31 29 29 30 29
45 52 58 58 64 63 60 58 64 61 64 67 70 66 65 66 71 70 64 59 58 57 55 56 49 46 48 49 48 46 49 47 44 43 38 32 34 33 39 40 40 40 35
47 55 57 86 72 73 72 69 61 65 70 77 71 70 73 77 75 72 67 63 58 59 53 50 46 43 44 41 41 40 41 43 43 40 37 41 40 38 41 40 43 45 45
52 67 78 72 78 79 75 66 66 69 72 74 77 77 77 71 66 63 62 63 61 55 52 50 46 43 42 40 37 34 32 32 34 38 37 35 37 35 33 37 39 37 44
70 77 76 82 81 74 68 71 74 75 77 78 76 77 72 67 64 66 61 56 52 51 51 48 45 45 43 40 35 32 30 30 32 35 35 36 43 45 46 42 41 41 38
72 67 67 68 68 69 72 76 76 75 74 75 77 74 70 63 60 54 54 53 51 50 49 49 49 46 45 46 43 38 34 32 36 39 41 41 42 43 48 57 56 50 47
61 63 61 62 64 68 71 72 72 73 73 71 66 63 58 55 52 49 48 48 47 48 49 51 54 55 53 50 47 49 46 46 43 40 40 43 45 45 48 49 53 57 52
50 51 53 59 63 65 66 66 69 68 63 59 56 54 51 47 44 44 48 49 50 51 51 53 53 51 49 47 50 52 56 55 49 50 49 45 40 36 37 41 45 50 53
48 50 52 55 58 61 60 57 53 50 49 48 47 46 49 53 55 51 52 56 60 58 50 43 48 48 50 51 48 47 45 51 51 51 49 39 40 40 35 34 33 34 44
50 51 53 53 51 52 52 52 50 48 48 47 48 50 54 56 54 54 64 60 57 52 43 43 41 41 43 44 46 46 45 48 49 51 50 35 41 34 32 34 37 34 33

GFSSE_prec_cthk_003.txt.gz
RH
74 68 66 60 55 57 54 52 47 44 42 42 39 35 32 30 28 25 21 19 18 16 15 15 14 14 14 14 13 12 14 14 14 14 19 29 36 38 42 48 48 57 54
71 64 60 58 56 53 50 46 43 42 40 39 36 32 28 24 21 16 14 14 14 13 13 11 10 8 9 9 11 12 14 15 16 18 21 25 30 38 38 36 37 37 40
62 62 58 58 53 49 46 42 43 41 39 33 30 26 22 20 17 12 10 10 11 14 13 11 9 7 7 8 10 13 16 19 20 22 23 25 27 30 36 37 38 37 38
58 57 58 58 47 44 42 41 40 37 32 28 24 21 19 15 11 8 9 12 15 16 15 14 12 11 11 11 12 12 12 15 20 22 24 27 27 31 33 35 37 39 41
60 58 56 49 43 42 42 38 34 28 26 24 21 18 14 9 8 9 13 17 17 18 17 17 17 17 16 16 17 17 16 16 16 18 24 28 31 37 39 30 38 52 55
57 55 46 40 41 43 36 29 25 23 20 19 18 11 9 11 11 13 17 18 19 20 21 22 22 24 26 26 26 24 22 21 21 21 19 23 31 32 35 31 37 44 55
48 44 38 40 36 26 24 23 20 18 16 14 9 7 11 14 16 18 21 22 23 24 26 26 26 26 27 26 26 28 29 28 27 26 26 26 25 26 25 24 26 33 53
38 31 25 22 21 21 20 17 16 12 10 9 9 14 18 21 24 26 27 29 29 29 29 27 26 27 27 27 27 28 28 29 31 33 34 35 34 33 33 30 34 34 41
20 17 17 17 17 15 13 12 10 8 8 12 17 20 25 27 29 30 31 31 30 30 30 30 29 28 28 29 29 28 28 29 31 33 37 38 41 42 47 45 42 44 47
17 16 15 13 10 8 9 8 10 14 18 21 24 29 30 31 33 32 32 32 33 35 36 37 35 34 34 33 32 32 30 29 30 33 36 37 38 40 46 50 46 43 41
15 14 13 11 10 9 12 16 20 22 25 27 29 32 33 32 33 36 37 37 39 38 40 39 37 39 39 38 36 37 36 33 31 29 30 31 34 36 39 41 41 35 32
16 17 16 14 15 17 21 24 27 30 31 31 33 32 33 34 36 37 39 42 44 44 46 45 43 44 44 44 42 40 38 36 34 33 32 30 29 30 34 35 36 34 28
24 25 23 20 23 26 29 29 32 36 42 45 43 41 41 41 39 39 41 44 47 49 50 50 50 49 48 47 46 46 45 39 38 33 31 29 31 29 27 28 30 33 33
34 32 32 26 28 29 32 35 41 48 54 53 53 50 47 45 45 44 44 46 51 54 53 52 52 54 52 51 51 49 48 44 43 39 39 39 34 32 30 27 26 25 28
32 35 36 34 30 38 41 44 50 54 56 57 55 54 52 54 50 49 50 53 56 56 52 49 49 51 49 49 44 47 49 48 46 45 46 46 38 34 30 29 26 23 23
34 36 40 41 36 46 48 49 51 53 55 52 53 55 57 56 55 57 60 63 63 62 54 52 50 50 47 45 43 41 44 44 47 47 49 50 44 39 40 33 28 24 23
40 42 47 55 53 52 63 65 64 64 65 61 55 57 60 61 64 68 70 69 61 57 52 50 48 47 45 44 42 44 46 45 43 41 42 44 41 37 35 35 38 35 31
45 51 58 62 85 79 91 84 81 80 65 62 66 71 71 73 74 73 71 66 57 54 52 50 46 43 43 41 41 41 40 41 43 43 42 40 38 37 35 38 30 31 36
56 58 71 89 90 80 98 85 81 73 71 76 78 81 76 75 75 71 66 62 55 51 48 44 40 39 38 38 39 40 40 40 39 36 36 39 35 35 34 37 35 35 31
61 69 80 84 87 90 82 76 72 71 77 79 79 77 77 74 69 67 64 57 47 46 43 39 38 36 37 36 36 34 34 35 36 34 34 33 34 37 38 39 38 36 33
68 71 72 74 79 82 75 74 71 77 79 81 80 78 74 70 64 57 50 48 48 45 40 37 39 39 38 38 36 34 37 40 39 37 38 39 38 40 44 45 48 50 49
73 66 67 70 70 70 68 70 77 84 83 77 74 73 67 59 54 50 49 47 43 41 42 44 43 40 39 40 38 33 33 33 39 45 46 46 45 44 45 46 48 52 55
67 66 64 64 65 67 71 73 68 66 67 69 68 63 56 51 49 47 45 47 48 47 46 45 46 46 47 48 49 45 41 43 41 39 44 50 48 48 52 52 50 49 50
54 52 53 55 56 59 61 63 64 65 66 61 56 51 51 51 49 50 50 48 49 47 48 48 44 40 39 39 37 33 36 39 41 38 36 33 37 39 41 44 45 42 44
55 54 56 59 60 60 58 58 59 58 55 54 54 54 52 49 48 49 54 56 58 51 46 48 43 30 32 33 38 38 40 41 43 46 41 40 38 34 33 34 36 37 36
53 52 57 62 62 62 59 56 55 54 51 50 51 52 50 51 52 62 60 50 53 51 43 45 40 28 30 34 38 41 43 46 49 50 50 45 44 38 38 35 39 40 39

GFSSE_prec_cthk_006.txt.gz
RH
72 72 69 64 59 61 59 51 47 43 45 45 42 37 34 30 27 22 14 14 13 12 12 12 10 9 8 9 10 10 10 10 10 13 13 15 25 34 37 37 40 44 50
69 61 63 59 59 58 51 46 44 43 43 40 37 33 26 22 19 13 11 10 11 13 12 11 9 8 8 8 10 11 12 13 14 15 15 16 19 28 32 36 37 36 37
70 62 59 61 61 54 51 43 42 43 41 35 31 25 21 17 12 9 9 12 13 13 13 13 13 13 12 12 12 12 12 15 15 18 19 19 21 25 33 39 39 39 36
68 62 58 61 56 53 43 43 42 39 33 28 24 21 16 12 8 9 12 15 16 16 16 17 18 19 19 18 18 19 19 19 18 19 20 23 23 25 34 31 34 36 46
57 63 62 58 50 45 42 42 37 30 26 23 20 15 11 9 9 12 15 17 18 19 19 21 21 22 23 24 24 24 23 23 22 22 22 23 26 28 32 31 29 37 45
62 61 60 51 43 42 41 33 26 24 21 18 13 9 10 11 14 17 19 21 21 21 23 25 26 25 25 24 24 25 26 26 25 24 24 25 28 29 34 39 28 30 37
61 59 53 43 41 36 25 22 20 19 16 12 8 11 15 18 21 21 23 25 27 28 27 26 25 25 25 25 25 26 26 26 26 28 28 29 31 30 27 26 27 29 36
57 49 43 37 25 20 21 19 16 13 10 9 14 19 22 24 25 27 28 28 28 29 28 29 28 27 27 28 28 27 26 27 28 30 32 34 35 35 33 36 35 44 49
42 30 23 21 19 19 16 14 10 9 11 17 20 25 28 30 29 29 30 32 31 33 35 34 34 33 32 32 31 30 30 28 27 28 31 34 34 36 36 38 40 39 47
22 22 19 16 13 10 10 9 10 15 19 23 28 31 31 31 31 32 32 32 35 37 40 41 42 39 38 37 36 35 34 33 31 29 29 28 31 34 35 37 38 39 40
19 15 12 10 10 10 11 14 19 22 26 30 33 34 33 33 33 32 35 36 37 41 44 44 46 46 44 44 43 42 40 36 34 32 30 30 30 29 31 33 34 34 31
14 14 14 13 12 15 20 23 26 30 33 38 42 44 44 44 44 43 41 42 41 46 48 48 48 46 47 47 47 45 44 42 41 40 34 30 27 29 29 29 31 31 33
19 20 18 19 21 23 26 30 33 39 42 49 49 51 52 52 50 48 46 46 47 49 51 51 51 46 44 45 46 44 42 41 42 40 38 38 36 30 28 26 26 26 28
29 29 26 24 28 33 35 37 42 48 50 52 53 49 48 50 53 55 52 50 53 53 54 54 52 47 45 44 44 43 42 39 36 40 43 42 41 39 34 27 27 26 25
36 37 39 34 32 41 47 49 54 56 57 57 59 55 52 53 57 56 56 58 62 60 58 54 49 46 45 44 41 40 39 40 38 38 37 38 40 41 40 35 33 29 28
41 46 47 49 41 44 53 58 66 73 75 75 74 64 61 61 63 62 63 66 66 63 60 56 50 45 45 44 41 39 38 38 37 38 38 36 35 36 36 36 31 28 26
46 46 47 51 54 56 64 75 92 93 88 84 82 76 76 72 70 68 69 71 68 63 59 53 45 41 39 36 34 33 33 33 32 32 34 36 37 37 37 37 34 29 25
48 51 52 66 76 83 86 91 91 91 86 85 78 75 78 76 76 73 73 70 65 54 48 46 43 40 38 34 32 31 32 31 30 29 29 30 31 32 35 37 33 31 31
64 62 58 68 80 85 91 93 91 85 79 79 79 82 81 83 79 70 67 62 58 52 45 42 40 39 34 31 31 33 35 33 30 29 28 27 27 30 31 32 33 32 30
63 62 63 78 83 91 92 90 80 77 74 80 87 88 80 73 68 70 69 61 50 44 43 42 39 37 36 35 35 36 35 35 33 33 32 31 31 31 33 34 34 35 35
66 70 74 79 87 84 75 73 70 72 84 90 79 73 68 66 65 57 50 46 47 47 44 41 42 41 39 37 37 36 38 40 39 37 37 35 33 35 35 35 37 39 40
71 71 73 67 65 68 71 70 73 70 64 62 62 62 61 54 48 44 45 47 46 44 44 44 42 41 40 37 35 36 35 31 29 28 26 25 28 29 34 38 38 37 37
63 56 54 56 57 58 58 59 59 59 59 59 58 53 49 48 49 50 50 48 47 48 48 50 45 41 38 40 36 34 33 32 29 24 22 21 23 23 21 24 27 33 38
47 52 58 57 54 56 58 61 62 62 58 54 52 51 52 53 54 55 54 49 46 49 46 41 36 33 34 34 32 32 35 41 42 37 32 26 24 24 24 23 26 28 31
61 55 54 52 55 56 57 56 54 51 52 53 54 54 55 55 51 49 43 41 38 39 36 34 35 38 39 36 36 34 35 38 47 54 46 43 35 28 30 29 29 30 32
59 57 58 61 58 52 52 52 54 56 58 57 55 52 52 51 46 40 35 33 34 36 38 43 42 43 38 39 40 43 41 44 44 43 45 41 37 25 26 34 38 36 41

GFSSE_prec_cthk_009.txt.gz
RH
74 76 74 75 68 63 61 57 49 42 39 37 33 32 27 25 23 16 14 12 12 13 11 10 9 8 8 7 7 8 9 10 11 11 12 15 19 28 33 39 39 37 36
77 78 69 67 68 68 61 54 47 41 39 35 31 26 22 18 15 11 11 13 13 13 12 12 14 13 12 12 12 11 11 12 13 15 15 16 19 24 33 37 36 37 36
79 70 72 72 69 64 58 52 43 41 38 32 25 22 18 14 10 11 13 16 15 15 16 17 17 18 19 19 18 18 20 19 17 17 19 21 21 24 26 36 41 32 30
72 68 66 70 73 62 57 46 42 38 32 24 21 17 14 9 10 14 16 16 17 18 18 18 19 19 20 20 21 21 21 21 20 20 20 24 28 28 28 35 32 29 31
70 68 69 69 67 57 48 45 40 31 24 20 16 13 9 10 14 16 18 19 20 20 21 22 22 22 21 20 21 22 23 23 23 22 21 22 25 32 39 39 39 36 31
69 74 71 68 59 49 47 42 28 24 21 15 11 10 12 16 18 20 22 24 25 25 25 24 23 23 22 22 22 22 23 23 25 26 26 24 25 27 38 38 42 40 28
71 68 69 61 51 46 40 27 23 21 16 10 10 16 18 21 22 25 27 27 27 26 27 25 26 25 26 26 26 25 25 24 24 26 28 29 29 28 27 28 30 30 38
63 63 59 50 50 34 24 24 20 15 10 9 17 21 24 25 26 28 29 29 30 30 31 31 32 31 30 30 30 28 27 27 26 25 25 27 29 30 31 31 35 36 39
58 52 45 34 25 24 22 18 13 10 13 19 24 27 26 27 29 30 31 31 32 34 36 35 36 36 35 34 34 33 32 31 30 30 28 27 26 27 30 32 35 37 37
40 30 25 23 22 17 15 13 13 18 21 26 28 29 30 31 32 33 36 39 41 41 43 40 41 40 40 38 38 37 36 37 36 34 32 31 29 29 26 28 32 34 36
25 23 18 15 15 14 15 19 23 25 28 32 34 35 38 39 42 46 47 46 46 47 47 44 46 47 45 42 40 40 38 36 35 36 36 34 31 28 28 28 28 30 33
18 17 16 17 17 20 25 27 30 32 36 40 43 43 43 46 50 52 52 49 50 51 50 50 50 49 46 42 41 40 38 36 35 33 35 36 36 33 29 26 25 25 26
20 19 19 19 22 27 32 35 39 41 44 48 51 49 47 53 55 54 53 52 54 52 53 54 53 50 45 40 39 40 38 34 32 33 32 33 37 41 37 32 29 27 25
29 26 28 29 31 33 38 43 45 52 53 60 56 55 59 58 56 57 59 57 55 57 58 58 56 53 47 40 38 37 35 31 31 31 32 34 35 36 36 37 37 33 29
37 39 41 36 42 44 47 50 57 60 65 70 69 68 74 73 69 66 66 65 63 64 64 59 56 51 46 41 39 36 31 27 25 24 25 26 27 29 31 32 32 32 32
46 51 53 52 46 49 51 55 59 70 81 88 89 86 92 87 80 78 76 73 73 71 65 60 53 49 42 37 34 31 29 27 26 26 26 26 25 25 27 28 29 30 32
50 54 55 67 73 75 75 81 86 83 82 80 82 90 92 87 83 81 84 78 76 71 63 54 48 43 38 36 34 32 29 28 28 28 27 26 25 24 25 25 27 28 29
58 60 65 72 77 85 85 88 89 86 79 75 83 85 85 85 88 88 80 73 68 60 59 55 47 39 37 37 36 33 32 31 30 29 27 26 26 25 24 24 23 23 25
63 66 70 74 81 86 91 95 81 79 73 76 77 80 87 87 81 75 69 64 63 59 49 44 42 40 37 36 36 35 35 34 32 31 30 29 28 28 26 24 24 25 25
61 63 66 68 77 82 85 78 71 74 72 72 73 75 73 70 66 63 59 54 49 44 43 42 41 38 37 37 37 35 35 33 31 31 31 31 30 30 29 27 26 25 27
65 69 75 77 77 70 68 70 67 64 64 65 60 57 56 55 55 53 50 48 47 47 46 43 41 41 40 38 37 38 33 28 29 32 29 28 25 23 22 20 19 19 20
75 72 64 62 59 61 61 59 58 56 51 52 53 53 51 50 50 51 52 52 50 48 47 44 40 37 36 31 30 30 29 28 28 26 29 25 22 20 19 19 17 16 15
56 52 49 50 52 53 51 52 52 53 52 50 50 50 52 53 52 51 51 50 48 45 40 38 34 31 32 30 29 31 34 34 38 33 33 33 33 32 30 24 22 20 18
57 52 56 55 51 54 54 51 50 50 52 54 57 59 59 56 54 52 49 44 36 34 33 30 28 29 31 35 37 38 36 42 44 38 39 39 36 32 32 31 27 25 22
56 63 56 51 59 54 54 54 56 58 60 61 62 62 59 55 49 43 38 31 26 25 25 25 28 29 39 44 43 43 45 47 52 55 42 36 35 34 36 32 28 25 21
56 51 50 54 58 62 65 67 65 65 61 59 60 56 52 48 40 33 27 23 23 24 31 40 39 46 42 42 42 37 43 51 58 62 57 45 43 39 40 39 35 29 24

GFSSE_prec_cthk_015.txt.gz
RH
73 67 62 64 63 62 62 59 55 50 40 35 32 27 23 18 11 10 12 14 12 12 13 14 14 15 15 15 15 14 14 14 15 17 19 20 20 18 20 23 29 35 32
75 69 68 69 67 68 64 61 53 47 39 33 29 24 18 12 9 12 15 13 14 15 15 16 16 16 16 16 17 17 17 16 16 17 24 32 43 25 22 24 26 31 32
78 75 73 71 73 68 69 61 53 45 37 31 23 17 13 9 12 15 15 15 16 16 17 18 18 18 18 17 17 17 18 18 19 22 27 43 43 29 28 28 29 31 33
80 80 80 77 75 73 69 65 55 44 33 25 19 13 10 12 16 16 18 19 19 20 20 20 20 19 19 19 19 19 19 19 24 28 39 33 46 31 24 26 28 31 32
87 86 82 79 81 81 77 67 54 44 29 22 15 11 11 18 18 20 21 21 22 23 24 24 24 23 25 24 22 21 21 23 28 35 38 30 39 31 25 22 23 25 28
93 92 86 86 84 82 79 64 53 40 24 18 12 10 18 20 21 22 23 24 24 26 26 28 29 32 31 29 27 26 25 25 29 30 34 34 27 23 26 28 29 28 27
96 91 82 90 91 90 77 67 48 29 23 13 12 16 21 22 24 25 25 25 28 30 30 33 37 38 37 35 33 32 30 30 32 33 35 33 25 23 24 25 28 32 33
88 88 88 89 89 85 77 59 31 27 17 11 18 21 23 24 26 27 27 30 31 34 37 38 40 42 41 39 36 35 35 33 40 40 38 33 28 27 26 24 24 26 29
95 86 91 89 85 79 62 35 27 20 12 16 21 24 26 28 27 29 30 34 38 40 41 43 46 45 42 40 39 36 35 39 40 43 45 40 31 30 30 29 26 25 25
98 85 94 88 71 50 37 26 21 16 13 22 27 28 30 30 31 35 38 40 43 44 45 48 49 46 44 48 47 43 35 40 40 45 44 40 32 31 31 31 32 30 26
87 88 80 70 60 51 35 23 15 15 21 27 32 32 35 47 47 49 45 43 45 47 46 46 48 49 52 55 51 45 42 42 38 44 41 33 26 29 31 32 31 32 30
69 58 57 46 41 40 31 22 31 29 39 45 51 44 50 47 53 50 53 51 53 52 53 57 59 59 59 57 53 46 44 41 43 41 36 32 26 25 26 28 30 31 30
39 31 24 21 22 35 33 37 39 43 48 48 48 52 57 59 69 68 72 78 76 75 77 72 68 65 60 58 52 46 43 42 42 41 36 32 27 26 26 26 27 29 30
32 26 27 21 26 39 41 50 48 55 55 62 64 62 65 66 75 79 81 81 84 85 79 77 77 69 63 56 52 48 45 41 39 37 36 33 28 26 25 24 24 24 26
35 34 30 29 39 39 48 53 63 63 63 67 73 73 73 77 75 75 82 83 85 84 85 83 77 69 62 57 52 50 45 41 39 37 36 31 29 27 25 23 22 21 20
42 41 40 49 50 53 64 68 70 76 78 75 73 73 75 81 77 79 83 86 88 88 88 79 68 61 57 54 51 46 44 42 41 41 36 35 30 30 27 25 23 22 22
50 51 52 54 58 63 71 73 81 84 79 78 69 70 73 73 75 84 84 83 89 85 75 62 56 52 51 50 49 45 41 41 40 39 38 41 39 37 36 30 27 25 25
57 61 64 68 73 74 73 76 82 77 68 67 63 62 68 70 76 79 74 66 61 56 56 53 51 48 47 46 44 43 39 36 35 38 36 45 47 39 41 39 35 28 24
64 70 71 73 75 76 76 77 73 68 66 66 64 64 62 60 56 52 53 51 49 51 51 50 49 49 48 43 38 40 38 34 37 36 34 39 50 47 45 37 38 26 24
72 75 74 75 76 81 82 77 73 67 63 59 59 55 48 45 46 49 51 51 53 55 55 54 50 47 41 40 40 41 35 35 33 33 42 51 50 51 48 45 40 39 34
68 70 65 73 81 86 80 75 65 57 52 51 49 46 47 50 52 53 57 59 59 59 56 51 48 44 37 34 38 42 41 38 35 39 40 49 50 49 49 48 44 38 33
69 71 72 76 82 79 76 63 61 56 53 51 49 51 55 57 59 62 63 63 60 56 51 47 43 41 38 38 39 40 38 32 31 36 39 43 41 43 44 47 42 37 38
70 71 68 69 69 66 61 57 52 50 50 52 54 54 58 63 63 61 56 55 52 49 44 40 40 42 36 35 35 38 37 37 36 34 33 35 37 42 46 43 38 37 40
63 60 58 56 57 55 51 50 53 58 61 58 60 61 64 63 62 56 53 53 48 41 41 40 40 40 37 40 41 41 41 41 41 39 40 36 38 40 42 39 44 42 41
57 57 54 52 49 45 48 51 52 56 60 62 63 63 62 58 56 47 45 39 39 40 42 42 42 41 43 44 43 41 39 43 44 41 37 40 45 46 48 49 51 47 46
54 52 49 49 49 48 50 52 56 60 60 65 70 66 62 48 44 43 38 35 35 41 44 42 42 42 43 45 52 44 44 44 40 46 45 40 44 43 52 52 49 49 47